Meteo Giornale » Osservazioni meteo India » Thiruvananthapuram
ore: 23:30 - Osservazioni Meteo Thiruvananthapuram
Lat. 8° 28' N Lon. 76° 57' E Alt. 4 metri s.l.m.
27 °C
Nuvoloso
Temp. 24 Ore
26 °C
30 °C
Nord/NOvest
13 Km/h
Dew point 24 °C
Umidità 83 %
Visibilità 6 Km
Il sole sorge alle ore 06:13
Il sole tramonta alle ore 18:31
| Data e Ora | Cielo e Fenomeni | T °C | DP °C | Um. % | Pres. hPa | Vis. km | Vento km/h | |
|---|---|---|---|---|---|---|---|---|
| Oggi h: 23:30 | Nuvoloso | 27 | 24 | 83 | 1012 | 6 | N/NO 13 | |
| Oggi h: 23:00 | Nuvoloso | 27 | 25 | 88 | 1012 | 6 | N/NO 18.5 | |
| Oggi h: 22:30 | Nuvoloso | 27 | 25 | 88 | 1012 | 6 | N/NO 13 | |
| Oggi h: 22:00 | Nuvoloso | 27 | 25 | 88 | 1012 | 6 | N 18.5 | |
| Oggi h: 21:30 | Nuvoloso | 27 | 25 | 88 | 1012 | 6 | N/NO 25.9 | |
| Oggi h: 21:00 | Nuvoloso | 28 | 24 | 78 | 1011 | 6 | N/NO 14.8 | |
| Oggi h: 20:30 | Nuvoloso | 28 | 25 | 83 | 1011 | 6 | N/NO 14.8 | |
| Oggi h: 20:00 | Nuvoloso | 27 | 25 | 88 | 1011 | 7 | NO 27.8 | |
| Oggi h: 19:30 | Poco Nuvoloso | 27 | 25 | 88 | 1011 | 7 | NO 29.6 | |
| Oggi h: 19:00 | Poco Nuvoloso | 27 | 25 | 88 | 1010 | 7 | NO 29.6 | |
| Oggi h: 18:30 | Poco Nuvoloso | 27 | 25 | 88 | 1010 | 7 | NO 29.6 | |
| Oggi h: 18:00 | Poco Nuvoloso | 28 | 25 | 83 | 1009 | 7 | NO 37 | |
| Oggi h: 17:30 | Poco Nuvoloso | 29 | 25 | 79 | 1009 | 7 | NO 40.7 | |
| Oggi h: 17:00 | Poco Nuvoloso | 29 | 25 | 79 | 1009 | 6 | NO 22.2 | |
| Oggi h: 16:30 | Poco Nuvoloso | 29 | 25 | 79 | 1009 | 6 | O/NO 31.5 | |
| Oggi h: 16:00 | Nuvoloso | 29 | 26 | 83 | 1009 | 6 | O/NO 37 | |
| Oggi h: 15:30 | Nuvoloso | 29 | 26 | 83 | 1009 | 6 | O/NO 37 | |
| Oggi h: 15:00 | Nuvoloso | 29 | 26 | 83 | 1009 | 6 | O/NO 37 | |
| Oggi h: 14:30 | Nuvoloso | 30 | 26 | 79 | 1009 | 6 | O/NO 33.3 | |
| Oggi h: 14:00 | Nuvoloso | 30 | 26 | 79 | 1009 | 6 | O/NO 25.9 | |
| Oggi h: 13:30 | Nuvoloso | 29 | 26 | 83 | 1010 | 6 | NO 27.8 | |
| Oggi h: 13:00 | Nuvoloso | 29 | 26 | 83 | 1010 | 6 | O/NO 27.8 | |
| Oggi h: 12:30 | Nuvoloso | 29 | 25 | 79 | 1011 | 6 | O/NO 27.8 | |
| Oggi h: 12:00 | Nuvoloso | 30 | 26 | 79 | 1011 | 6 | O/NO 22.2 | |
| Oggi h: 11:30 | Nuvoloso | 30 | 26 | 79 | 1012 | 6 | O/NO 24 | |
| Oggi h: 11:00 | Molto Nuvoloso | 29 | 26 | 83 | 1012 | 6 | O/NO 20.3 | |
| Oggi h: 10:30 | Molto Nuvoloso | 28 | 26 | 88 | 1012 | 6 | O/NO 18.5 | |
| Oggi h: 10:00 | Molto Nuvoloso | 29 | 25 | 79 | 1012 | 6 | O/NO 18.5 | |
| Oggi h: 09:30 | Molto Nuvoloso | 28 | 25 | 83 | 1012 | 6 | N/NO 16.7 | |
| Oggi h: 09:00 | Foschia | 28 | 25 | 83 | 1013 | 5 | N/NO 14.8 | |
| Oggi h: 08:30 | Foschia | 27 | 25 | 88 | 1012 | 5 | N 11.1 | |
| Oggi h: 08:00 | Foschia | 26 | 25 | 94 | 1012 | 4 | N/NO 7.4 | |
| Oggi h: 07:30 | Foschia | 26 | 25 | 94 | 1012 | 4 | N 7.4 | |
| Oggi h: 07:00 | Foschia | 26 | 25 | 94 | 1012 | 4 | N 5.5 | |
| Oggi h: 06:30 | Foschia | 26 | 25 | 94 | 1012 | 4 | N 5.5 | |
| Oggi h: 06:00 | Foschia | 26 | 25 | 94 | 1012 | 4 | N 5.5 | |
| Oggi h: 05:30 | Foschia | 26 | 25 | 94 | 1011 | 4 | N 3.7 | |
| Oggi h: 05:00 | Foschia | 26 | 25 | 94 | 1011 | 4 | N 3.7 | |
| Oggi h: 04:30 | Pioviggine Foschia | 26 | 25 | 94 | 1011 | 4 | N 3.7 | |
| Oggi h: 04:00 | Foschia | 26 | 24 | 88 | 1011 | 4 | N/NO 7.4 | |
| Oggi h: 03:30 | Foschia | 26 | 25 | 94 | 1011 | 4 | N 5.5 | |
| Oggi h: 03:00 | Foschia | 26 | 25 | 94 | 1011 | 4 | N 5.5 | |
| Oggi h: 02:30 | Foschia | 26 | 25 | 94 | 1011 | 4 | O/NO 9.3 | |
| Oggi h: 02:00 | Foschia | 26 | 24 | 88 | 1011 | 5 | N 3.7 | |
| Oggi h: 01:30 | Foschia | 26 | 24 | 88 | 1012 | 5 | N 3.7 | |
| Oggi h: 01:00 | Foschia | 26 | 24 | 88 | 1012 | 5 | N 5.5 | |
| Oggi h: 00:30 | Nuvoloso | 26 | 24 | 88 | 1013 | 6 | N 5.5 | |



